Hourly Data Report for July 03, 2016

OTTAWA INTL A
ONTARIO

45°19'00.000" N
75°40'00.000" W
114.90 m
6106001
71628
YOW

Download Data

Hourly Data (July 2016)
Hourly Data Report for July 3, 2016
TIME
LST
Temp Definition
°C
Dew Point Definition
°C
Rel Hum Definition
%
Precip. Amount Definition
mm

Wind Dir Definition
10's deg

Wind Spd Definition
km/h
Visibility Definition
km
Stn Press Definition
kPa
Hmdx Definition


Wind Chill Definition


Weather Definition


00:00 12.5 9.5 82   23 14 24.1 100.16     LegendNANA
01:00 12.1 9.7 85   23 10 24.1 100.17     Clear
02:00 11.2 9.6 90   22 12 24.1 100.17     LegendNANA
03:00 11.4 10.0 91   23 13 24.1 100.18     LegendNANA
04:00 11.4 10.2 92   24 11 24.1 100.18     Clear
05:00 11.9 10.5 91   23 10 24.1 100.22     LegendNANA
06:00 13.8 11.7 87   23 8 24.1 100.25     LegendNANA
07:00 16.6 12.8 78   27 8 24.1 100.31     Clear
08:00 19.4 12.3 63   29 16 24.1 100.32     LegendNANA
09:00 21.0 11.7 55   25 11 24.1 100.32     LegendNANA
10:00 23.9 11.4 45   24 13 24.1 100.28 26   Mainly Clear
11:00 25.0 8.7 35   27 24 24.1 100.24 26   LegendNANA
12:00 26.2 8.9 33   29 17 24.1 100.19 27   LegendNANA
13:00 25.2 8.9 35   27 17 24.1 100.16 26   Mostly Cloudy
14:00 27.0 7.7 29   26 20 24.1 100.09 27   LegendNANA
15:00 25.5 10.4 38   25 25 24.1 100.06 27   LegendNANA
16:00 26.7 9.8 34   26 14 24.1 99.99 28   Clear
17:00 26.6 10.1 35   26 21 24.1 99.96 28   LegendNANA
18:00 26.6 11.0 37   26 16 24.1 99.96 28   LegendNANA
19:00 24.1 9.9 40   26 12 24.1 99.96 25   Mainly Clear
20:00 20.8 9.5 48   26 10 24.1 99.99     LegendNANA
21:00 18.6 11.5 63   18 11 24.1 100.04     LegendNANA
22:00 18.2 10.7 61   20 11 24.1 100.08     Mainly Clear
23:00 18.4 10.3 59   24 7 24.1 100.13     LegendNANA

Notes on Data Quality.

Legend

  • E = Estimated
  • M = Missing
  • NA = Not Available*
  • [empty] = Indicates an unobserved value
Date modified: